Regional Weather Roundup
Issued by NWS

Home | Current Version | Previous Version | Graphics & Text | Print | Product List | Glossary On
Versions: 1 2 3 4 5 6 7 8 9 10 11 12 13 14 15 16 17 18 19 20 21 22 23 24 25 26 27 28 29 30 31 32 33 34 35 36 37 38 39 40 41 42 43 44 45 46 47 48 49 50
000
ASUS43 KOAX 251710
RWRNE

WEATHER ROUNDUP FOR NEBRASKA
NATIONAL WEATHER SERVICE OMAHA NE
1200 PM CDT FRI MAY 25 2018

NOTES: SATELLITE DATA IS BEING USED TO AUGMENT CLOUD COVER ABOVE
       12000 FEET.
       "FAIR" INDICATES FEW OR NO CLOUDS BELOW 12,000 FEET WITH NO
       SIGNIFICANT WEATHER AND/OR OBSTRUCTIONS TO VISIBILITY.


NEZ001>004-019>022-054>056-251800-
NEBRASKA PANHANDLE

CITY           SKY/WX    TMP DP  RH WIND       PRES   REMARKS
SCOTTSBLUFF    SUNNY     78  56  46 W7        30.01S
ALLIANCE       SUNNY     82  52  35 W8        29.98S
CHADRON        SUNNY     78  57  48 N6        29.95F
GORDON         FAIR      82  55  39 W10       29.94S
KIMBALL        SUNNY     79  49  34 W5        30.07S
SIDNEY         SUNNY     84  47  27 W10       30.03S
$$

NEZ057>060-069>072-079>082-251800-
SOUTHWEST NEBRASKA

CITY           SKY/WX    TMP DP  RH WIND       PRES   REMARKS
NORTH PLATTE   SUNNY     84  62  47 W8        29.92F
IMPERIAL       SUNNY     89  46  22 W13G18    29.96F
LEXINGTON      SUNNY     84  60  43 W8        29.91F
MCCOOK         SUNNY     84  58  40 W6        29.93F
OGALLALA       SUNNY     84  55  36 W8        29.96F
$$

NEZ005>010-023>029-035>040-094-251800-
NORTH CENTRAL NEBRASKA

CITY           SKY/WX    TMP DP  RH WIND       PRES   REMARKS
VALENTINE      SUNNY     85  60  42 N6        29.88S
AINSWORTH      SUNNY     82  61  49 CALM      29.89S
BROKEN BOW     SUNNY     88  57  34 W8        29.89F
O`NEILL        SUNNY     86  57  36 CALM      29.87S
ORD            SUNNY     84  60  44 CALM      29.86F
THEDFORD       SUNNY     85  56  37 NW9       29.92S
$$

NEZ041-046>049-061>064-073>077-083>087-251800-
SOUTH CENTRAL NEBRASKA

CITY           SKY/WX    TMP DP  RH WIND       PRES   REMARKS
GRAND ISLAND   SUNNY     85  56  37 W7        29.90F
AURORA         SUNNY     83  53  35 W8        29.89F
HASTINGS       SUNNY     84  55  36 SW9G20    29.91F
HEBRON         SUNNY     86  56  35 SW7       29.90F
HOLDREGE       SUNNY     82  57  41 SW8       29.92F
KEARNEY        SUNNY     85  55  35 W8        29.91F
YORK           MOSUNNY   84  57  39 W10       29.88F
$$

NEZ011>018-030>034-042>045-251800-
NORTHEAST NEBRASKA

CITY           SKY/WX    TMP DP  RH WIND       PRES   REMARKS
NORFOLK        SUNNY     87  62  43 NE6       29.82F
ALBION         SUNNY     85  62  46 W3        29.86F
BLAIR          SUNNY     84  62  47 CALM      29.84F
COLUMBUS       SUNNY     87  60  40 W9        29.85F
FREMONT        SUNNY     90  62  39 NW5       29.84F HX  90
TEKAMAH        SUNNY     84  66  54 E5        29.82F
WAYNE          SUNNY     85  65  50 CALM      29.84S
$$

NEZ050>053-065>068-078-088>093-251800-
SOUTHEAST NEBRASKA

CITY           SKY/WX    TMP DP  RH WIND       PRES   REMARKS
LINCOLN        SUNNY     88  58  36 SW10      29.86F
OMAHA EPPLEY   MOSUNNY   85  60  42 SW8       29.84F
BEATRICE       SUNNY     81  64  54 SW8       29.90F
FALLS CITY     CLOUDY    80  60  50 SW13      29.88F
NEBRASKA CITY  MOSUNNY   83  64  52 SW9       29.87F
PLATTSMOUTH    SUNNY     83  64  52 S9        29.87S
$$

NEZ044-045-051>053-067-251800-
OMAHA AREA

CITY           SKY/WX    TMP DP  RH WIND       PRES   REMARKS
OMAHA EPPLEY   MOSUNNY   85  60  42 SW8       29.84F
BLAIR          SUNNY     84  62  47 CALM      29.84F
FREMONT        SUNNY     90  62  39 NW5       29.84F HX  90
MILLARD        SUNNY     87  62  42 W7        29.84F
OFFUTT AFB     SUNNY     84  63  49 S7        29.84F
PLATTSMOUTH    SUNNY     83  64  52 S9        29.87S
WAHOO          FAIR      91  49  23 NW5       29.84F
$$



USA.gov is the U.S. government's official web portal to all federal, state and local government web resources and services.